Location: Berg
(47.2344°N, 9.5296°E)
Time: 22:20:33
(UTC+00:00)

Cosmos 1455 - Pass Details

Date: 24 January 2021
Orbit: 499 x 520 km, 82.5° (Epoch: 04 March)

Event Time Altitude Azimuth Distance (km) Brightness Sun altitude
Rises 17:48:18 0° 345° (NNW) 2,636 5.9 -16.2°
Reaches altitude 10° 17:50:28 10° 340° (NNW) 1,748 5.0 -16.6°
Maximum altitude 17:54:09 47° 266° (W) 694 3.3 -17.2°
Drops below altitude 10° 17:57:50 10° 192° (SSW) 1,744 5.1 -17.8°
Sets 18:00:01 0° 186° (S) 2,629 6.0 -18.2°
